www.pogodaiklimat.ru

Погода и климат >> Архив погоды >> Уругвай >> Мерседес


ПОГОДА в Мерседесе

  • Прогноз погоды в Мерседесе
  • Монитор погоды в Мерседесе

АРХИВ ПОГОДЫ в Мерседесе

Время (UTC), дата Ветер
(напр.,м/с)
 
Видим.   Явления Облачность Т
(С)
Тd
(С)
f
(%)
Тe
(С)
Тes
(С)
Комфортность P
(гПа)
Po
(гПа)
Тmin
(С)
Tmax
(С)
R
(мм)
R24
(мм)
S
(см)
21 10.06 ЮВ 3 4000 м дымка 9/3 600 м
[Cu Sc Ac As]
+17.4 +15.8 90 +17 +17 1015.3 1013.2
00 11.06 Ю 3 6000 м дымка 9/4 600 м
[Cu med, cong Ac As]
+16.3 +15.5 95 +16 +16 1016.8 1014.7 +13.9 +18.8
03 11.06 Ю 5 6000 м дымка 9/1 600 м
[Sc Ac As]
+16.4 +15.4 94 +15 +15 1017.6 1015.5
06 11.06 ЮВ 6 2000 м слаб. морось {дождь} 10/10 100 м
[St]
+15.5 +15.3 99 +14 +14 1017.6 1015.5 0.7
09 11.06 ЮВ 7 2000 м слаб. морось {дождь} 10/10 100 м
[Frnb]
+15.3 +14.7 96 +13 +13 1017.6 1015.5
12 11.06 ЮВ 8 1200 м дымка {дождь} 10/10 100 м
[Frnb]
+15.3 +14.7 96 +13 +13 1017.0 1014.8 +14.2 +16.8 3
15 11.06 В 6 5000 м дымка 10/5 100 м
[Frnb Ac As]
+17.7 +16.5 93 +17 +17 1016.1 1014.0
18 11.06 В 7 3000 м гроза, ливневой дождь 9/5 600 м
[Cb cap Ac As]
+17.9 +17.4 97 +17 +17 1012.9 1010.8 6
21 11.06 ЮВ 7 10 км {гроза} 6/1 1000 м
[Cu med, cong Ac As Cs]
+18.4 +17.3 93 +18 +18 1012.0 1009.9
00 12.06 В 9 10 км {гроза, дождь} 4/1 600 м
[Sc Ac cast]
+17.9 +17.1 95 +17 +17 1012.1 1010.0 +14.8 +19.6 0.6
03 12.06 В 7 10 км гроза без осадков 9/4 300 м
[Cb cap Ac As]
+17.8 +16.7 93 +17 +17 1011.0 1008.9
06 12.06 В 7 10 км гроза без осадков 5/3 300 м
[Cb cap Ac As]
+17.3 +16.5 95 +16 +16 1010.0 1007.8 6
09 12.06 СВ 5 10 км {гроза} 5/5 300 м
[Sc Ac As]
+16.9 +16.4 97 +16 +16 1009.3 1007.2
12 12.06 С 6 4000 м дымка {гроза} 5/0
[Ac cast]
+18.8 +17.3 91 +20 +20 1009.8 1007.7 +16.2 +19.2
15 12.06 СЗ 10 8000 м дымка 10/9 300 м
[Cu Sc Ac As]
+23.1 +19.4 80 +30 +30 очень
душно
1009.9 1007.8
18 12.06 СЗ 4 3000 м дымка 9/4 200 м
[Frnb Ac und]
+22.2 +19.9 87 +28 +29 душно 1009.0 1006.9
21 12.06 Ю 3 4000 м дымка 8/4 200 м
[St Ac trans Cs]
+20.4 +19.2 93 +25 +25 комфорт 1009.9 1007.8
00 13.06 ЮВ 4 10 км 6/1 200 м
[St Ac trans]
+19.2 +18.6 96 +21 +21 комфорт 1011.4 1009.3 +18.9 +24.0
03 13.06 ЮВ 4 100 м туман 5/0
[Ac trans]
+17.8 +17.8 100 +18 +18 1011.9 1009.8
06 13.06 ЮВ 7 10 км зарница 6/3 1000 м
[Cb calv Ac trans]
+18.1 +17.8 98 +18 +18 1011.7 1009.6
09 13.06 ЮВ 6 8000 м гроза, ливневой дождь 9/5 200 м
[Cb calv Ac As Ci ing]
+18.5 +18.2 98 +19 +19 1010.2 1008.1
12 13.06 В 6 6000 м слаб. дождь {гроза} 10/8 100 м
[Frnb Ac As]
+18.1 +17.6 97 +18 +18 1011.6 1009.5 +16.4 +19.5 6
15 13.06 В 7 8000 м дымка {гроза, дождь} 10/6 100 м
[St Ac As]
+19.4 +18.7 96 +21 +21 комфорт 1011.2 1009.1
18 13.06 В 6 10 км {гроза, дождь} 10/5 100 м
[St Ac As]
+20.8 +19.3 91 +25 +25 комфорт 1008.9 1006.8 0.7
21 13.06 В 6 10 км {дождь} 8/3 600 м
[Cu med, cong Ac As Cs]
+21.1 +19.2 89 +26 +26 душно 1008.1 1006.0
00 14.06 В 11 10 км гроза без осадков 9/4 600 м
[Cb cap Ac As]
+19.7 +18.7 94 +22 +22 комфорт 1008.2 1006.1 +17.4 +21.8 0.0
03 14.06 В 3 10 км {гроза} 10/8 600 м
[Sc Ac As]
+19.6 +19.0 96 +23 +23 комфорт 1009.3 1007.2
06 14.06 СЗ 5 6000 м дымка {гроза} 10/10 300 м
[Sc]
+19.7 +19.4 98 +22 +22 комфорт 1009.8 1007.7 0.2
09 14.06 ЮЗ 7 2000 м дымка {гроза} 10/10 200 м
[St]
+18.8 +18.5 98 +20 +20 1011.0 1008.9
12 14.06 ЮЗ 9 200 м дождь {гроза, морось} 10/10 50 м
[St]
+16.2 +15.9 98 +14 +14 1014.1 1012.0 +15.6 +20.2 0.4
15 14.06 Ю 7 500 м туман 10/10 100 м
[St]
+16.3 +15.7 96 +15 +15 1015.4 1013.3
18 14.06 Ю 8 1000 м дымка {туман} 10/10 200 м
[St]
+16.0 +15.0 94 +14 +14 1014.9 1012.7 0.0
21 14.06 ЮВ 8 10 км 10/10 200 м
[Frnb]
+16.3 +14.5 89 +15 +15 1015.6 1013.4
00 15.06 ЮВ 12 6000 м слаб. морось 10/10 100 м
[Frnb]
+15.3 +14.0 92 +13 +13 1017.0 1014.8 +15.3 +16.8 0.0
03 15.06 ЮВ 10 10 км {морось} 10/10 100 м
[Frnb]
+14.9 +13.6 92 +12 +12 1016.7 1014.5
06 15.06 ЮВ 7 8000 м дымка 10/10 100 м
[Frnb]
+14.3 +13.5 95 +12 +12 1016.2 1014.0 0.0
09 15.06 ЮВ 16 4000 м гроза, ливневой дождь 10/6 100 м
[Cb cap Ac As]
+13.9 +13.7 99 +10 +10 1013.8 1011.7
12 15.06 ЮВ 15 8000 м гроза, ливневой дождь 10/10 100 м
[Cb cap]
+13.8 +13.1 96 +10 +10 1015.0 1012.8 +13.0 +15.7 11
15 15.06 Ю 12 1000 м морось 10/10 100 м
[Frnb]
+14.6 +14.4 99 +12 +12 1015.7 1013.5
18 15.06 ЮВ 16 3000 м гроза без осадков {морось} 10/10 100 м
[Cb cap]
+14.0 +13.5 97 +10 +10 1014.4 1012.3 2
21 15.06 ЮВ 16 10 км гроза без осадков 10/10 100 м
[Cb cap]
+14.7 +13.5 93 +11 +11 1015.4 1013.3
00 16.06 ЮВ 20 6000 м слаб. дождь {гроза} 10/10 100 м
[Frnb]
+15.3 +14.5 95 +12 +12 1015.2 1013.1 +13.5 +15.5 9
03 16.06 ЮВ 10 3000 м дождь {гроза} 10/10 50 м
[Frnb]
+15.7 +15.5 99 +13 +13 1017.4 1015.2
06 16.06 В 8 3000 м гроза, ливневой дождь 10/6 100 м
[Cb cap Ac As]
+17.2 +16.7 97 +16 +16 1016.9 1014.8 22
09 16.06 В 14 5000 м гроза, ливневой дождь 10/6 100 м
[Cb cap Ac As]
+18.1 +17.8 98 +17 +17 1015.9 1013.8
12 16.06 В 18 1000 м сильн. гроза, ливневой дождь 10/10 100 м
[Cb cap]
+17.8 +17.6 99 +16 +16 1018.3 1016.2 +14.7 +18.5 34
15 16.06 В 18 3000 м гроза, ливневой дождь 10/10 100 м
[Cb cap]
+17.8 +17.5 98 +16 +16 1018.9 1016.8
18 16.06 В 18 4000 м гроза, ливневой дождь 10/10 100 м
[Cb cap]
+17.8 +17.3 97 +16 +16 1018.4 1016.3 25
21 16.06 В 14 10 км в посл. час гроза {дождь} 9/6 100 м
[Frnb Ac As]
+17.9 +17.3 96 +16 +16 1017.4 1015.3
00 17.06 В 3 9000 м слаб. дождь 10/10 100 м
[Frnb]
+18.4 +17.8 96 +19 +19 1019.8 1017.7 +17.4 +18.4 7
03 17.06 З 7 9000 м слаб. дождь {морось} 10/1 200 м
[St Ac As]
+16.6 +16.3 98 +15 +15 1020.9 1018.8
06 17.06 СЗ 5 7000 м слаб. дождь 10/0
[Ac As]
+16.0 +16.0 100 +15 +15 1020.3 1018.1 0.2
09 17.06 штиль 0 10 км {морось} 10/10 100 м
[St]
+15.9 +15.7 99 +16 +16 1020.4 1018.2
12 17.06 С 3 1500 м дымка {дождь} 10/10 50 м
[Frnb]
+15.1 +14.8 98 +14 +14 1020.2 1018.1 +14.2 +18.5 2
15 17.06 С 3 200 м слаб. дождь {туман} ?/? +15.7 +15.7 100 +15 +15 1018.6 1016.5

 

Местоположение метеостанции Мерседес (Уругвай): широта -33.25 долгота -58.06 высота над уровнем моря 17 м.

В архиве по умолчанию представлена погода в Мерседесе за последнюю неделю. Архивные данные за месяц целиком и за предыдущие месяцы, начиная с января 2011 года, Вы можете получить, выбрав интересующий диапазон дат из раскрывающегося списка и нажав кнопку "Ввод!".


*Определитесь, кто Вы:
робот инопланетянин человек

Внимание! Время в таблицах - всемирное. Для получения местного времени необходимо прибавить поправку, которая равна 0 ч.

Смотрите также архив погоды в соседних городах и на ближайших метеорологических станциях:

Погода в Гуалегуайчу (Аргентина) (58 км)
Погода в Янге (Уругвай) (75 км)
Погода в Пайсанду (Уругвай) (102 км)
Погода в Колонии (Уругвай) (135 км)
Погода в Дурасно (Уругвай) (145 км)
Погода в Буэнос-Айресе аэропорт (Аргентина) (149 км)
Погода в Буэнос-Айресе (Аргентина) (153 км)
Погода в Пасо-де-лос-Торосе (Уругвай) (153 км)
Погода в Эсейсе (Аргентина) (179 км)
Погода в Ла-Плате (Аргентина) (191 км)

Пояснения к столбцам:

Ветер - указаны скорость ветра в м/с - средняя за 10 мин, порывы в срок и между сроками (в фигурных скобках) и направление, откуда дует ветер: С - северный, СВ - северо-восточный, В - восточный, ЮВ - юго-восточный, Ю - южный, ЮЗ - юго-западный, З - западный, СЗ - северо-западный.
Видимость - горизонтальная дальность видимости в метрах или километрах. При видимости от 1 до 10 км при отсутствии осадков обычно наблюдается дымка, при ухудшении видимости до 1 км и менее - туман. В сухую погоду видимость может ухудшаться дымом, пылью или мглою.
Явления - указаны атмосферные явления, наблюдавшиеся в срок или в последний час перед сроком; фигурными скобками обозначены явления, наблюдавшиеся между сроками (за 1-3 часа до срока); квадратными скобками обозначены град или гололедные отложения с указанием их диаметра в мм.
Облачность - указаны через наклонную черту общая и нижняя облачность в баллах и высота нижней границы облаков в метрах; квадратными скобками обозначены формы облаков: Ci - перистые, Cs - перисто-слоистые, Cc - перисто-кучевые, Ac - высококучевые, As - высокослоистые, Sc - слоисто-кучевые, Ns - слоисто-дождевые, Cu - кучевые, Cb - кучево-дождевые. Подробнее классификацию облаков см. в Атласе облаков (PDF).
T - Температура воздуха - температура, измеренная на высоте 2 м над землей.
Td - Температура точки росы - температура, при понижении до которой содержащийся в воздухе водяной пар достигнет насыщения.
f - Относительная влажность воздуха - влажноcть воздуха, измеренная на высоте 2 м над землей.
Te - Эффективная температура - температура, которую ощущает одетый по сезону человек в тени. Характеристика душности погоды. При расчете учитывается влияние влажности воздуха и скорости ветра на теплоощущения человека.
Tes - Эффективная температура на солнце - температура, которую ощущает человек, с поправкой на солнечный нагрев. Характеристика знойности погоды. Зависит от высоты солнца над горизонтом, облачности и скорости ветра. Ночью, в пасмурную погоду, а также при ветре 12 м/с и более поправка равна нулю.
P - Атмосферное давление - приведенное к уровню моря атмосферное давление.
Po - Атмосферное давление - измеренное на уровне метеостанции атмосферное давление.
Tmin - Минимальная температура - минимум температуры воздуха на высоте 2 м над землей.
Tmax - Максимальная температура - максимум температуры воздуха на высоте 2 м над землей.
R - Количество осадков - Количество выпавших осадков за период времени, мм. При наведении курсора мыши на число - период времени, за который выпало указанное количество осадков.
R24 - Количество осадков - Количество выпавших осадков за 24 часа, мм.
S - Снежный покров - Высота снежного покрова, см. При наведении курсора мыши на число - состояние снежного покрова и степень покрытия местности в баллах.